Weather observations for the past three days for
Plymouth, Plymouth Municipal Airport
Metric (Imperial)
Date Time (edt) Wind (kph) Vis. (km) Weather Sky Cond. Temperature (ºC) Relative Humidity Wind Chill (°C) Heat Index (°C) Pressure Precipitation (cm)
Air Dwpt 6 hour altimeter (cm) sea level (mb) 1 hr 3 hr 6 hr
Max. Min.
15 06:52 SW 7 12.87 Mostly Cloudy BKN003 23.3 21.7 91% 75.95 1012.7
15 05:52 S 7 6.44 Fog/Mist OVC002 22.2 21.7 97% 75.97 1012.8
15 04:52 S 9 3.22 Fog/Mist OVC002 22.2 21.1 94% 75.95 1012.7
15 03:52 Vrbl 6 16.09 Fair CLR 21.7 20 90% 75.95 1012.4
15 02:52 S 6 16.09 Partly Cloudy SCT090 21.7 18.9 84% 75.95 1012.7
15 01:52 S 6 16.09 Fair CLR 22.2 18.3 26.1 21.1 79% 75.97 1013.0
15 00:52 S 6 16.09 Partly Cloudy SCT080 22.2 17.8 76% 76.02 1013.4
14 23:52 Calm 16.09 A Few Clouds FEW085 22.8 18.3 76% 76.05 1013.8
14 22:52 Calm 16.09 Fair CLR 23.3 18.3 74% 76.05 1013.9
14 21:52 Calm 16.09 Fair CLR 23.9 19.4 76% 24 76.05 1014.0
14 20:52 Calm 16.09 Fair CLR 24.4 19.4 74% 25 76.02 1013.7
14 19:52 S 6 16.09 Fair CLR 26.1 20.6 32.2 26.1 72% 28 76.02 1013.5
14 18:52 S 7 16.09 Fair CLR 27.8 20 63% 29 76.02 1013.6
14 17:52 Vrbl 11 16.09 A Few Clouds FEW050 29.4 20.6 59% 32 76.02 1013.7
14 16:52 SE 11 16.09 A Few Clouds FEW055 29.4 19.4 55% 31 76.02 1013.7
14 15:52 SE 13 16.09 A Few Clouds FEW055 29.4 19.4 55% 31 76.05 1014.0
14 14:52 E 15 16.09 Partly Cloudy SCT055 30.6 20 53% 33 76.1 1014.4
14 13:52 Vrbl 7 16.09 Partly Cloudy SCT055 31.1 17.8 31.7 25 45% 32 76.1 1014.7
14 12:52 Calm 16.09 Partly Cloudy FEW046 SCT060 31.7 18.9 47% 33 76.15 1015.3
14 11:52 SW 7 16.09 Fair CLR 30 19.4 53% 32 76.2 1015.9
14 10:52 Vrbl 6 16.09 Fair CLR 28.9 18.9 55% 30 76.23 1016.3
14 09:52 NE 7 16.09 Fair CLR 28.3 18.9 57% 30 76.25 1016.7
14 08:52 NE 7 16.09 Fair CLR 27.2 20 65% 29 76.28 1017.0
14 07:52 Calm 16.09 Fair CLR 25 21.7 25 22.2 82% 26 76.28 1017.1
14 06:52 NW 6 4.02 Fog/Mist OVC002 22.2 21.7 97% 76.28 1016.9
14 05:52 W 7 0.40 Fog VV002 22.2 21.7 97% 76.25 1016.8
14 04:52 W 7 6.44 Fog/Mist OVC002 22.8 21.7 94% 76.23 1016.4
14 03:52 SW 6 14.48 Overcast OVC003 22.8 21.7 94% 76.23 1016.2
14 02:52 SW 7 16.09 Overcast OVC003 22.8 21.7 94% 76.23 1016.2
14 01:52 SW 6 16.09 Overcast OVC003 22.8 21.7 25 22.8 94% 76.25 1016.8
14 00:52 SW 11 16.09 Overcast OVC004 22.8 21.7 94% 76.3 1017.3
13 23:52 SW 9 16.09 Overcast OVC006 23.3 21.7 91% 76.33 1017.8
13 22:52 SW 11 16.09 Overcast OVC006 23.3 21.7 91% 76.33 1017.8
13 21:52 SW 13 16.09 Overcast OVC006 23.3 21.7 91% 76.35 1017.9
13 20:52 SW 11 16.09 Mostly Cloudy BKN009 23.3 21.7 91% 76.33 1017.8
13 19:52 SW 13 16.09 Overcast FEW013 OVC028 25 22.2 25.6 24.4 85% 26 76.33 1017.8 0.23
13 18:52 Vrbl 11 16.09 Mostly Cloudy BKN100 25.6 22.8 85% 27 76.33 1017.7
13 17:52 S 7 16.09 Overcast BKN090 OVC110 25 22.8 88% 26 76.35 1018.0
13 16:52 SW 9 16.09 Overcast OVC095 25 22.8 88% 26 76.38 1018.4 0.23
13 15:52 S 13 16.09 Mostly Cloudy SCT008 BKN014 BKN025 25 23.3 90% 26 76.45 1019.2 0.03
13 14:52 SW 17 16.09 Overcast SCT008 BKN017 OVC055 25.6 23.9 90% 27 76.48 1019.8 0.2
13 13:52 SW 15 6.44 Light Rain Fog/Mist SCT044 BKN060 OVC080 24.4 23.3 26.7 23.9 94% 24 76.53 1020.5 0.13 0.91
13 12:52 SW 11 16.09 Partly Cloudy FEW010 SCT100 25.6 22.8 85% 27 76.56 1020.6 0.05
13 11:52 SW 9 16.09 Light Rain SCT007 BKN050 OVC090 23.9 22.8 94% 23 76.63 1021.6 0.33
13 10:52 SW 13 4.02 Rain Fog/Mist SCT018 BKN042 OVC090 23.9 22.8 94% 23 76.63 1021.7 0.41 0.41
13 09:52 SW 20 16.09 Overcast SCT014 BKN042 OVC060 26.7 22.8 79% 29 76.63 1021.8
13 08:52 SW 19 16.09 Overcast OVC010 25.6 22.8 85% 27 76.66 1021.9
13 07:52 SW 13 16.09 Overcast OVC006 24.4 22.8 25.6 24.4 91% 24 76.68 1022.2 0.03
13 06:52 SW 9 11.27 Light Rain SCT013 BKN080 BKN110 24.4 22.2 88% 25 76.68 1022.4 0.03
13 05:52 SW 20 16.09 Overcast BKN012 OVC018 25.6 22.8 85% 27 76.66 1022.0
13 04:52 SW 13 16.09 Overcast OVC009 25 22.8 88% 26 76.63 1021.8
13 03:52 SW 13 16.09 Partly Cloudy SCT009 24.4 22.2 88% 25 76.63 1021.8
13 02:52 SW 15 16.09 Fair CLR 24.4 22.8 91% 24 76.63 1021.8
13 01:52 SW 19 16.09 A Few Clouds FEW012 25 22.8 26.7 25 88% 26 76.66 1022.0
13 00:52 SW 26 G 39 16.09 Overcast OVC012 25.6 22.8 85% 27 76.68 1022.5
12 23:52 SW 22 G 41 16.09 Overcast OVC013 25.6 22.8 85% 27 76.73 1022.9
12 22:52 SW 22 G 35 16.09 Partly Cloudy SCT013 25.6 22.8 85% 27 76.71 1022.6
12 21:52 SW 22 16.09 Mostly Cloudy BKN014 25.6 22.8 85% 27 76.71 1022.8
12 20:52 SW 22 G 35 16.09 Mostly Cloudy BKN016 BKN060 26.1 22.8 82% 28 76.71 1022.7
12 19:52 SW 19 16.09 Partly Cloudy SCT018 26.7 22.8 31.1 26.7 79% 29 76.68 1022.3
12 18:52 SW 22 G 50 16.09 Partly Cloudy SCT020 27.8 22.8 74% 31 76.66 1021.9
12 17:52 SW 31 G 46 16.09 Mostly Cloudy BKN022 BKN065 28.3 22.8 72% 32 76.61 1021.5
12 16:52 SW 31 G 48 16.09 Overcast SCT024 BKN029 OVC034 29.4 23.3 70% 34 76.61 1021.4
12 15:52 SW 26 G 52 16.09 Overcast SCT024 OVC034 30 22.8 65% 34 76.61 1021.5
12 13:52 SW 22 G 44 16.09 Overcast BKN022 BKN027 OVC032 28.9 22.8 31.1 25 70% 32 76.61 1021.5
12 12:52 SW 28 G 46 16.09 Overcast BKN023 BKN028 OVC050 29.4 22.8 68% 33 76.63 1021.6
12 11:52 SW 20 G 37 16.09 Overcast BKN026 OVC031 30 22.2 63% 33 76.63 1021.7
12 10:52 SW 19 G 30 16.09 A Few Clouds FEW026 28.9 21.7 65% 32 76.61 1021.2
12 09:52 SW 19 16.09 Overcast FEW018 SCT045 OVC060 27.8 21.7 69% 30 76.63 1021.5
12 08:52 SW 15 16.09 Mostly Cloudy BKN050 BKN060 25 21.1 79% 26 76.63 1021.7
12 07:52 SW 11 16.09 Mostly Cloudy FEW011 BKN110 25 21.7 25 22.8 82% 26 76.61 1021.2
Date Time (edt) Wind (kph) Vis. (km) Weather Sky Cond. Air Dwpt Max. Min. Relative Humidity Wind Chill (°C) Heat Index (°C) altimeter (cm) sea level (mb) 1 hr 3 hr 6 hr
6 hour
Temperature (ºC) Pressure Precipitation (cm)